User: anonymous   Login
Location: Unspecified
(0.0000°N, 0.0000°E)
Time: 03:29:31
(UTC+00:00)
Language:

NOAA 16 - Orbit

View from above orbital plane
View from above orbital plane
View from above satellite
View from above satellite

Ground track
Ground track

The orbit data is extracted from the following two-line orbital elements,

1 26536U 00055A   18017.45859419 -.00000011 +00000-0 +17760-4 0  9992
2 26536 098.8339 092.7431 0011512 075.9597 284.2854 14.13195988893172
Epoch (UTC): 17 January 2018 11:00:22
Eccentricity: 0.0011512
inclination: 98.8339°
perigee height: 840 km
apogee height: 857 km
right ascension of ascending node: 92.7431°
argument of perigee: 75.9597°
revolutions per day: 14.13195988
mean anomaly at epoch: 284.2854°
orbit number at epoch: 89317

The dashed part of the orbit path shows where the satellite is in the earth's shadow,  

DLR